Regional Weather Roundup
Issued by NWS

Home | Current Version | Previous Version | Text Only | Print | Product List | Glossary On
Versions: 1 2 3 4 5 6 7 8 9 10 11 12 13 14 15 16 17 18 19 20 21 22 23 24 25 26 27 28 29 30 31 32 33 34 35 36 37 38 39 40 41 42 43 44 45 46 47 48 49 50
000
ASUS43 KLOT 230510
RWRIL

ILLINOIS REGIONAL WEATHER ROUNDUP
NATIONAL WEATHER SERVICE CHICAGO/ROMEOVILLE IL
1100 PM CST SAT NOV 22 2014

NOTE: "FAIR" INDICATES FEW OR NO CLOUDS BELOW 12,000 FEET WITH NO
SIGNIFICANT WEATHER AND/OR OBSTRUCTIONS TO VISIBILITY.

* THESE STATIONS ARE NOT UNDER NWS QUALITY CONTROL. THEY ALSO MAY NOT
  REPORT WEATHER SUCH AS PRECIPITATION OR FOG.

ILZ001-002-007-009-015-016-024-230600-
NORTHWEST ILLINOIS

CITY           SKY/WX    TMP DP  RH WIND       PRES   REMARKS
MOLINE         CLOUDY    51  47  86 S17G24    29.76F
STERLING*      PTCLDY    48  45  87 S6        29.80S
SAVANNA*       CLOUDY    51  47  84 S12       29.77S
$$

ILZ003-004-008-010-011-017-018-230600-
NORTH CENTRAL ILLINOIS

CITY           SKY/WX    TMP DP  RH WIND       PRES   REMARKS
ROCKFORD       MOCLDY    49  45  86 S14       29.82S
FREEPORT*      CLOUDY    48  46  90 S14       29.79S
ROCHELLE*      CLOUDY    46  44  95 S12       29.82R
DE KALB*         N/A     46  44  93 S16       29.82F
PERU*          CLOUDY    51  47  86 S13       29.84R
$$

ILZ005-006-012>014-019>023-230600-
NORTHEAST ILLINOIS

CITY           SKY/WX    TMP DP  RH WIND       PRES   REMARKS
CHICAGO-OHARE  CLOUDY    52  46  80 S12G24    29.83F
CHICAGO-MIDWAY CLOUDY    53  47  79 SW13      29.85F
AURORA         CLOUDY    52  46  80 S14       29.84F
LANSING*       CLOUDY    50  46  85 S15G21    29.88F
JOLIET*        CLOUDY    51  46  84 S9G17     29.85F
WAUKEGAN       CLOUDY    50  46  86 S15       29.81S
DUPAGE AIRPORT CLOUDY    51  46  83 S13       29.83F
KANKAKEE*      CLOUDY    49  46  88 S12       29.89F
WHEELING       CLOUDY    52  47  83 S14       29.84F
MORRIS*        MOCLDY    50  48  90 S13       29.84S
ROMEOVILLE*    CLOUDY    51  46  82 S15       29.85F
NORTHERLY ISL    N/A     52  46  80 S14         N/A
$$

LMZ740>746-230600-
SOUTHERN LAKE MICHIGAN

STATION/POSITION SKY/WX   TEMP    WIND        PRES    VSBY  WAVE
                          AIR SEA DIR/SP/G                  HT/PER
                          (F)     (DEG/KT/KT) (MB)    (MI)  (FT/S)
SOUTHERN BUOY              46 43  200/ 12/ 14 1010.9S         2/ 4
WAUKEGAN HARBOR            51     220/ 19/ 24   N/A
HARRISON CRIB              52     200/ 24/ 27   N/A
BURNHAM HARBOR             52     190/ 11/ 16   N/A
CALUMET HARBOR             52     190/  9/ 19 1009.9F
MICHIGAN CITY              52     170/ 17/ 21   N/A
$$

ILZ025>027-034>036-040-047-049-050-058-095>099-230600-
WEST-CENTRAL ILLINOIS

CITY           SKY/WX    TMP DP  RH WIND       PRES   REMARKS
QUINCY         CLOUDY    53  49  86 S13       29.79F
GALESBURG*     CLOUDY    51  48  89 S14G22    29.80R
MACOMB*        CLOUDY    52  49  90 S14G20    29.82R
JACKSONVILLE*  CLOUDY    54  50  88 S12       29.83F
PITTSFIELD*    PTCLDY    54  49  85 S14G21    29.82F
$$

ILZ028>032-037-038-041>044-048-051>054-059>061-230600-
CENTRAL ILLINOIS

CITY           SKY/WX    TMP DP  RH WIND       PRES   REMARKS
PONTIAC        CLOUDY    52  48  87 S18G25    29.87S
BLOOMINGTON    CLOUDY    51  49  93 S23G29    29.87F
DECATUR        LGT RAIN  51  48  89 S13       29.90F
PEORIA         CLOUDY    53  47  79 S12       29.83F
LACON*         CLOUDY    52  47  83 S15       29.82S
LINCOLN*       CLOUDY    53  49  86 S15G23    29.86F
SPRINGFIELD    MOCLDY    52  48  86 S15       29.86F
TAYLORVILLE    CLOUDY    50  46  87 S13       29.88F
$$

ILZ033-039-045-046-055>057-062-063-230600-
EAST-CENTRAL ILLINOIS

CITY           SKY/WX    TMP DP  RH WIND       PRES   REMARKS
CHAMPAIGN      RAIN      49  47  93 S14       29.93S FOG
DANVILLE*      LGT RAIN  49  46  89 S14G23    29.92S
RANTOUL*       DRIZZLE   51  48  90 S20       29.91S
MATTOON        LGT RAIN  49  46  90 SE9       29.92F
PARIS*         LGT RAIN  49  47  92 S9        29.97F
$$

ILZ079-100>102-230600-
SOUTHWEST ILLINOIS

CITY           SKY/WX    TMP DP  RH WIND       PRES   REMARKS
ALTON          RAIN      51  49  92 SE6       29.90S
BELLEVILLE     CLOUDY    53  49  87 SE7       29.89F
CAHOKIA*       CLOUDY    54  49  83 S5        29.89F
SPARTA*        MOCLDY    55  41  60 S13G18    29.93F
$$

ILZ064>066-069>071-074>076-080>082-084>086-088>090-092>094-230600-
SOUTH-CENTRAL ILLINOIS

CITY           SKY/WX    TMP DP  RH WIND       PRES   REMARKS
CARBONDALE     MOCLDY    53  38  56 S8        29.95F
CAIRO*         CLEAR     56  39  53 SE7       29.96F
EFFINGHAM*     CLOUDY    51  43  74 SE8       29.94S
MARION         PTCLDY    54  39  58 S9        29.96F
MT. VERNON     CLOUDY    55  39  54 S10       29.95F
CENTRALIA*     CLOUDY    55  40  56 S14G20    29.92S
SALEM*           N/A     57  42  56 S10       29.93F
METROPOLIS*    CLEAR     53  38  57 CALM      29.97F
$$

ILZ067-068-072-073-078-083-087-091-230600-
SOUTHEAST ILLINOIS

CITY           SKY/WX    TMP DP  RH WIND       PRES   REMARKS
LAWRENCEVILLE  CLOUDY    51  40  65 S8        29.98F
FLORA*         CLOUDY    51  42  71 S10       29.94F
FAIRFIELD*     CLOUDY    54  40  59 S9        29.95S
HARRISBURG*    PTCLDY    55  38  52 S7        29.99S
ROBINSON*      LGT RAIN  52  41  65 S7        29.98S
CARMI*         MOCLDY    51  41  68 SE9       29.97F
$$

ABBREVIATIONS USED IN REMARKS
   TC - TEMPERATURE IN CELSIUS
  WCI - WIND CHILL INDEX
   HX - HEAT INDEX
  VSB - VISIBILITY
$$




USA.gov is the U.S. government's official web portal to all federal, state and local government web resources and services.